Hourly Weather Mostiska

Today, 8 August, Saturday

Time Temperature Precipitation Wind Pressure Humidity
00:00 +20°C° 0 mm 2 mps 745 mmHg 88%
01:00 +20°C° 0 mm 1 mps 745 mmHg 88%
02:00 +20°C° 0 mm 1 mps 745 mmHg 89%
03:00 +20°C° 0 mm 1 mps 745 mmHg 90%
04:00 +19°C° 0 mm 1 mps 745 mmHg 91%
05:00 +19°C° 0 mm 1 mps 745 mmHg 92%
06:00 +21°C° 0 mm 1 mps 745 mmHg 89%
07:00 +22°C° 0 mm 1 mps 745 mmHg 85%
08:00 +23°C° 0 mm 2 mps 745 mmHg 82%
09:00 +25°C° 0 mm 2 mps 745 mmHg 78%
10:00 +26°C° 0 mm 2 mps 745 mmHg 73%
11:00 +27°C° 0 mm 3 mps 745 mmHg 69%
12:00 +28°C° 0.1 mm 3 mps 745 mmHg 67%
13:00 +28°C° 0.1 mm 3 mps 745 mmHg 65%
14:00 +29°C° 0.1 mm 3 mps 744 mmHg 64%
15:00 +29°C° 0.5 mm 4 mps 744 mmHg 66%
16:00 +28°C° 0.5 mm 4 mps 744 mmHg 68%
17:00 +28°C° 0.5 mm 4 mps 744 mmHg 71%
18:00 +26°C° 0 mm 3 mps 744 mmHg 75%
19:00 +24°C° 0 mm 3 mps 744 mmHg 80%
20:00 +23°C° 0 mm 2 mps 744 mmHg 84%
21:00 +21°C° 0 mm 2 mps 744 mmHg 86%
22:00 +20°C° 0 mm 2 mps 744 mmHg 88%
23:00 +20°C° 0 mm 2 mps 744 mmHg 89%

Tomorrow, 9 August, Sunday

Time Temperature Precipitation Wind Pressure Humidity
00:00 +19°C° 0 mm 2 mps 744 mmHg 90%
01:00 +19°C° 0 mm 2 mps 744 mmHg 90%
02:00 +18°C° 0 mm 2 mps 744 mmHg 91%
03:00 +18°C° 0 mm 2 mps 743 mmHg 92%
04:00 +19°C° 0 mm 1 mps 743 mmHg 92%
05:00 +18°C° 0 mm 1 mps 743 mmHg 93%
06:00 +20°C° 0 mm 1 mps 743 mmHg 89%
07:00 +21°C° 0 mm 1 mps 743 mmHg 85%
08:00 +22°C° 0 mm 1 mps 743 mmHg 80%
09:00 +24°C° 0 mm 2 mps 743 mmHg 75%
10:00 +25°C° 0 mm 2 mps 743 mmHg 70%
11:00 +27°C° 0 mm 2 mps 743 mmHg 65%
12:00 +27°C° 0.1 mm 2 mps 743 mmHg 63%
13:00 +28°C° 0.1 mm 2 mps 743 mmHg 61%
14:00 +28°C° 0.1 mm 2 mps 742 mmHg 60%
15:00 +28°C° 0.2 mm 2 mps 742 mmHg 61%
16:00 +28°C° 0.2 mm 2 mps 742 mmHg 63%
17:00 +28°C° 0.2 mm 2 mps 742 mmHg 65%
18:00 +26°C° 0.2 mm 2 mps 742 mmHg 71%
19:00 +24°C° 0.2 mm 2 mps 742 mmHg 78%
20:00 +23°C° 0.2 mm 1 mps 742 mmHg 84%
21:00 +22°C° 0.1 mm 1 mps 742 mmHg 86%
22:00 +22°C° 0.1 mm 1 mps 742 mmHg 88%
23:00 +21°C° 0.1 mm 1 mps 742 mmHg 89%

Day after tomorrow, 10 August, Monday

Time Temperature Precipitation Wind Pressure Humidity
00:00 +20°C° 0 mm 1 mps 742 mmHg 90%
01:00 +20°C° 0 mm 1 mps 741 mmHg 90%
02:00 +18°C° 0 mm 0 mps 741 mmHg 91%
03:00 +17°C° 0 mm 0 mps 741 mmHg 91%
04:00 +17°C° 0 mm 0 mps 741 mmHg 92%
05:00 +17°C° 0 mm 0 mps 741 mmHg 92%
06:00 +18°C° 0 mm 0 mps 741 mmHg 89%
07:00 +19°C° 0 mm 0 mps 741 mmHg 86%
08:00 +21°C° 0 mm 0 mps 741 mmHg 82%
09:00 +24°C° 0.1 mm 1 mps 741 mmHg 76%
10:00 +25°C° 0.1 mm 1 mps 741 mmHg 70%
11:00 +27°C° 0.1 mm 2 mps 742 mmHg 64%
12:00 +27°C° 0.1 mm 2 mps 741 mmHg 61%
13:00 +28°C° 0.1 mm 2 mps 741 mmHg 58%
14:00 +28°C° 0.1 mm 2 mps 741 mmHg 54%
15:00 +28°C° 0.3 mm 2 mps 741 mmHg 57%
16:00 +28°C° 0.3 mm 2 mps 740 mmHg 60%
17:00 +28°C° 0.3 mm 2 mps 740 mmHg 63%
18:00 +26°C° 0.4 mm 2 mps 740 mmHg 69%
19:00 +24°C° 0.4 mm 2 mps 740 mmHg 76%
20:00 +22°C° 0.4 mm 1 mps 740 mmHg 82%
21:00 +22°C° 0.2 mm 1 mps 741 mmHg 84%
22:00 +21°C° 0.2 mm 1 mps 741 mmHg 86%
23:00 +20°C° 0.2 mm 1 mps 741 mmHg 89%

11 August, Tuesday

Time Temperature Precipitation Wind Pressure Humidity
00:00 +20°C° 0 mm 1 mps 741 mmHg 89%
01:00 +18°C° 0 mm 0 mps 741 mmHg 89%
02:00 +17°C° 0 mm 0 mps 741 mmHg 90%
03:00 +17°C° 0 mm 0 mps 741 mmHg 90%
04:00 +17°C° 0 mm 0 mps 741 mmHg 91%
05:00 +16°C° 0 mm 0 mps 741 mmHg 91%
06:00 +18°C° 0 mm 0 mps 741 mmHg 88%
07:00 +19°C° 0 mm 0 mps 741 mmHg 84%
08:00 +20°C° 0 mm 0 mps 741 mmHg 81%
09:00 +22°C° 0 mm 0 mps 741 mmHg 75%
10:00 +24°C° 0 mm 0 mps 741 mmHg 69%
11:00 +27°C° 0 mm 1 mps 742 mmHg 63%
12:00 +28°C° 0.1 mm 1 mps 741 mmHg 60%
13:00 +28°C° 0.1 mm 1 mps 741 mmHg 57%
14:00 +28°C° 0.1 mm 2 mps 741 mmHg 54%
15:00 +28°C° 0.1 mm 2 mps 741 mmHg 57%
16:00 +28°C° 0.1 mm 2 mps 741 mmHg 59%
17:00 +28°C° 0.1 mm 3 mps 741 mmHg 62%
18:00 +26°C° 0.3 mm 2 mps 741 mmHg 70%
19:00 +24°C° 0.3 mm 2 mps 741 mmHg 78%
20:00 +21°C° 0.3 mm 2 mps 741 mmHg 86%
21:00 +20°C° 0.1 mm 2 mps 741 mmHg 87%
22:00 +19°C° 0.1 mm 2 mps 741 mmHg 88%
23:00 +19°C° 0.1 mm 1 mps 741 mmHg 89%

12 August, Wednesday

Time Temperature Precipitation Wind Pressure Humidity
00:00 +19°C° 0 mm 1 mps 741 mmHg 90%
01:00 +18°C° 0 mm 1 mps 741 mmHg 90%
02:00 +18°C° 0 mm 1 mps 741 mmHg 90%
03:00 +16°C° 0 mm 1 mps 741 mmHg 91%
04:00 +16°C° 0 mm 1 mps 741 mmHg 92%
05:00 +15°C° 0 mm 1 mps 741 mmHg 93%
06:00 +18°C° 0 mm 1 mps 742 mmHg 90%
07:00 +19°C° 0 mm 1 mps 742 mmHg 87%
08:00 +20°C° 0 mm 1 mps 742 mmHg 83%
09:00 +20°C° 0 mm 2 mps 742 mmHg 76%
10:00 +21°C° 0 mm 2 mps 742 mmHg 68%
11:00 +24°C° 0 mm 3 mps 742 mmHg 60%
12:00 +24°C° 0 mm 3 mps 742 mmHg 58%
13:00 +24°C° 0 mm 3 mps 742 mmHg 56%
14:00 +25°C° 0 mm 3 mps 742 mmHg 53%
15:00 +24°C° 0 mm 3 mps 742 mmHg 55%
16:00 +24°C° 0 mm 3 mps 742 mmHg 58%
17:00 +24°C° 0 mm 3 mps 742 mmHg 60%
18:00 +21°C° 0 mm 3 mps 742 mmHg 66%
19:00 +19°C° 0 mm 2 mps 742 mmHg 72%
20:00 +18°C° 0 mm 2 mps 742 mmHg 78%
21:00 +17°C° 0 mm 2 mps 742 mmHg 81%
22:00 +16°C° 0 mm 2 mps 743 mmHg 83%
23:00 +15°C° 0 mm 2 mps 743 mmHg 86%

13 August, Thursday

Time Temperature Precipitation Wind Pressure Humidity
00:00 +15°C° 0 mm 1 mps 743 mmHg 87%
01:00 +14°C° 0 mm 1 mps 743 mmHg 89%
02:00 +14°C° 0 mm 1 mps 743 mmHg 90%
03:00 +13°C° 0 mm 1 mps 743 mmHg 91%
04:00 +13°C° 0 mm 1 mps 743 mmHg 92%
05:00 +13°C° 0 mm 1 mps 743 mmHg 92%
06:00 +14°C° 0 mm 1 mps 743 mmHg 88%
07:00 +15°C° 0 mm 1 mps 743 mmHg 83%
08:00 +17°C° 0 mm 2 mps 743 mmHg 79%
09:00 +18°C° 0 mm 2 mps 743 mmHg 73%
10:00 +19°C° 0 mm 3 mps 743 mmHg 68%
11:00 +21°C° 0 mm 3 mps 743 mmHg 62%
12:00 +21°C° 0 mm 3 mps 743 mmHg 60%
13:00 +22°C° 0 mm 3 mps 743 mmHg 57%
14:00 +22°C° 0 mm 3 mps 743 mmHg 55%
15:00 +22°C° 0 mm 3 mps 743 mmHg 57%
16:00 +22°C° 0 mm 3 mps 742 mmHg 58%
17:00 +21°C° 0 mm 3 mps 742 mmHg 60%
18:00 +19°C° 0 mm 3 mps 742 mmHg 66%
19:00 +18°C° 0 mm 3 mps 742 mmHg 72%
20:00 +16°C° 0 mm 3 mps 742 mmHg 78%
21:00 +14°C° 0 mm 3 mps 742 mmHg 80%
22:00 +13°C° 0 mm 3 mps 742 mmHg 83%
23:00 +13°C° 0 mm 3 mps 742 mmHg 86%
Show more